Presure
214 191 216 195 201 239 239 235 261 248 245 239 202 196 159 198 195 198 204 204 208 201 201 215 202 218 249 216 211 224 204 232 211 220 219 216 211 210 185 199 173 188 200
218 177 203 197 209 229 245 294 255 233 231 236 218 211 227 203 206 200 207 201 204 197 219 219 226 243 237 242 224 225 235 212 218 214 198 203 183 203 186 185 187 191 177
177 220 215 189 168 198 245 283 251 218 229 205 197 228 204 194 211 198 214 197 191 201 230 214 205 233 226 221 222 217 202 229 201 175 216 174 189 211 187 192 182 180 173
204 213 204 229 226 230 232 265 242 218 223 196 192 193 217 219 232 228 237 227 220 204 224 197 190 196 239 189 189 236 199 177 213 204 198 197 201 180 174 183 173 181 169
187 191 197 212 223 229 225 303 229 222 215 207 195 191 194 196 203 213 215 219 229 222 188 185 195 182 238 202 186 214 209 209 209 201 177 199 179 180 176 176 182 179 178
193 209 194 190 205 235 239 322 224 225 216 213 204 193 193 199 234 224 218 219 207 184 180 175 183 190 201 190 208 208 213 211 193 180 183 179 181 183 179 176 175 174 169
202 210 193 203 178 183 144 215 227 226 213 208 208 209 194 206 240 217 211 200 172 191 166 190 177 199 191 210 206 202 203 205 183 182 179 171 178 180 163 159 163 156 177
208 210 203 201 183 217 226 268 225 223 212 207 202 205 205 232 222 216 214 178 189 176 183 172 215 201 205 205 188 195 192 183 172 182 172 177 174 166 163 171 158 161 155
181 211 208 163 196 217 232 269 247 215 211 203 204 206 210 222 218 205 184 169 179 167 196 216 179 172 200 182 183 186 165 163 188 175 163 163 155 156 160 164 160 156 161
191 155 211 203 216 210 190 264 240 222 213 203 197 206 203 218 216 204 182 183 187 172 178 184 173 201 176 180 174 156 195 171 164 153 162 154 158 166 164 164 160 143 172
184 203 210 207 221 216 241 225 226 229 216 203 195 192 211 218 197 197 172 183 168 187 184 186 166 192 180 192 172 176 160 167 166 165 155 156 167 158 154 161 159 151 151
197 210 213 178 209 218 231 224 212 217 215 205 200 192 202 224 187 190 170 171 177 204 186 166 183 185 164 179 167 163 161 163 160 164 158 186 150 169 177 177 181 170 180
200 199 210 190 206 223 230 219 213 213 223 208 201 191 240 209 193 203 178 181 167 172 180 171 171 180 168 165 161 166 164 155 154 162 172 146 171 173 169 153 171 165 180
214 201 212 157 208 209 227 220 227 222 221 191 203 222 196 225 189 189 177 176 165 175 170 166 171 174 164 176 180 152 172 159 165 175 165 183 180 146 168 174 175 174 175
211 195 201 212 214 217 226 216 233 235 209 197 192 209 181 229 189 187 180 177 165 179 163 175 170 168 169 161 168 164 166 173 176 174 187 166 163 171 180 171 176 175 175
177 205 135 194 217 211 240 222 234 234 213 199 202 247 202 225 193 192 180 170 167 174 171 169 171 162 173 170 180 174 164 174 174 186 180 165 172 163 178 172 175 173 164
207 194 207 202 196 205 216 229 253 216 203 206 217 205 219 192 193 177 183 172 164 178 166 170 169 165 172 166 163 159 177 174 173 183 166 167 173 172 174 176 174 179 174
200 204 207 172 209 216 245 235 243 215 197 198 211 203 223 225 191 193 183 172 164 178 169 172 142 144 167 169 168 171 182 180 180 183 172 157 169 176 176 175 173 188 190
167 213 165 171 216 208 238 233 240 211 203 203 204 199 225 220 196 191 183 183 175 174 166 166 167 168 170 167 175 169 166 167 171 181 171 179 162 165 182 185 180 176 184
204 212 151 155 208 213 240 237 240 212 203 192 191 204 219 222 192 193 184 181 185 176 177 171 161 172 170 173 164 176 154 180 181 163 173 186 174 190 182 176 179 181 183
209 184 211 184 203 224 233 243 246 207 201 194 198 202 207 214 220 194 189 184 195 178 169 174 180 176 167 167 170 142 181 179 162 176 187 168 192 180 185 185 185 188 183
209 145 223 217 195 167 216 244 250 207 204 193 195 192 201 213 215 200 186 182 206 191 176 167 165 168 175 171 165 170 166 149 183 178 172 174 175 186 192 181 185 174 191
216 215 189 228 198 226 213 239 239 213 200 199 194 191 200 207 203 219 206 193 190 197 206 175 171 169 179 172 176 184 181 189 171 172 174 182 162 183 173 178 163 192 193
213 245 228 200 171 193 225 224 243 224 200 194 193 193 209 199 203 199 213 232 223 189 191 186 182 181 179 179 182 182 180 172 180 181 192 161 189 174 182 180 188 178 193
232 160 216 220 187 211 217 232 257 237 202 202 193 188 214 195 225 203 192 208 212 208 209 204 195 188 185 183 175 174 183 188 181 163 186 184 190 177 181 183 187 192 206
228 216 215 210 217 222 223 227 240 226 211 203 197 191 198 204 190 210 194 201 192 199 201 202 203 203 198 191 193 192 191 197 195 192 188 178 172 179 191 188 190 193 173
Wind_Speed
43 44 47 38 33 45 39 34 29 32 39 42 59 58 49 57 45 41 47 44 44 50 55 46 47 48 33 40 40 34 39 28 34 25 20 21 21 22 30 21 37 22 25
48 46 48 42 41 44 40 26 28 32 36 41 53 67 54 66 65 55 59 42 38 39 47 47 35 34 33 26 31 30 24 28 25 22 27 21 30 26 27 21 20 20 23
44 47 41 41 45 34 37 24 28 34 34 38 38 47 60 49 61 53 58 44 40 41 47 37 29 27 26 26 26 25 28 21 25 35 17 36 23 17 17 16 17 20 26
43 40 38 43 42 41 33 26 27 36 35 39 38 37 45 53 43 46 34 35 48 51 38 30 30 33 22 30 34 22 23 33 17 18 14 14 13 19 26 18 23 24 30
40 37 36 39 37 41 31 27 32 36 35 40 42 40 42 42 40 42 39 37 31 34 35 32 29 37 20 26 30 28 23 21 16 14 24 12 21 21 21 23 28 28 29
44 36 35 36 37 42 32 28 35 36 38 38 41 41 42 39 35 30 34 33 29 36 34 34 34 29 23 26 25 20 17 15 18 21 16 18 18 20 22 23 25 28 29
46 37 34 36 41 38 47 30 37 35 40 37 39 44 37 38 36 35 35 29 35 31 35 30 34 24 25 22 18 14 12 11 18 17 19 22 21 23 26 28 29 31 35
42 36 34 30 42 41 36 32 36 36 40 40 39 40 37 32 37 37 34 36 35 34 30 34 24 26 24 19 21 14 15 17 21 18 22 21 23 25 29 32 34 35 36
40 41 33 35 39 39 36 32 36 35 39 43 39 35 32 24 36 34 38 36 37 35 28 27 29 32 21 24 21 19 27 27 16 22 27 26 29 31 36 38 38 39 43
50 44 35 31 35 38 37 32 33 38 42 44 39 40 30 29 36 38 39 35 34 38 34 28 32 23 29 25 24 28 15 26 27 34 31 33 33 37 41 43 44 42 51
56 46 39 34 35 37 34 35 33 36 41 45 42 37 37 36 41 41 41 46 39 31 30 30 35 23 28 20 26 23 28 28 30 32 35 36 41 39 41 48 48 46 47
54 49 43 37 32 34 36 36 38 37 41 43 44 39 37 41 41 45 42 40 43 30 27 36 29 31 34 30 29 30 32 35 31 38 38 37 41 41 48 50 48 53 56
56 46 42 42 31 36 38 43 43 39 41 40 42 39 46 47 48 49 48 45 40 34 31 35 39 34 35 32 33 32 36 37 37 44 46 41 50 49 52 50 56 58 58
58 46 45 49 33 36 37 41 44 43 43 46 43 42 40 47 51 51 50 47 39 37 33 39 39 39 38 39 38 37 43 42 42 40 46 38 41 46 55 54 56 59 62
53 44 49 39 40 38 40 43 42 44 43 46 42 42 45 46 55 55 52 50 41 39 44 39 41 43 42 41 46 45 44 46 49 48 41 56 58 56 51 56 58 63 62
41 42 35 38 42 38 40 42 43 45 43 44 43 40 45 48 60 59 54 49 45 46 43 43 47 46 48 50 50 53 46 49 48 47 47 54 53 56 57 59 60 63 59
41 39 38 37 38 40 44 44 42 44 43 44 40 43 46 43 56 49 56 52 45 48 47 51 49 50 53 52 50 47 56 53 49 50 54 57 57 60 60 62 65 67 67
44 42 39 51 45 45 46 42 41 48 46 45 42 43 45 49 57 60 58 55 47 54 53 54 32 30 56 57 57 58 59 59 56 55 57 54 64 64 67 69 67 71 72
47 48 46 51 45 47 46 42 41 52 48 45 44 45 45 49 65 56 59 65 63 60 55 55 55 57 60 59 63 57 54 56 56 61 60 65 63 66 71 73 70 68 76
50 50 36 39 45 48 46 42 43 52 50 48 46 45 45 50 60 64 63 61 67 62 63 62 52 65 63 65 60 69 46 65 67 58 65 68 69 70 74 71 73 76 80
56 55 50 52 44 44 45 45 44 56 53 50 49 48 45 53 52 67 64 59 72 66 58 66 69 69 59 59 67 32 71 68 59 69 69 68 73 76 79 80 81 82 83
57 31 52 42 44 38 48 45 43 57 54 52 50 50 52 52 56 66 65 60 65 73 69 57 56 63 70 67 62 68 61 43 71 70 72 74 74 80 80 76 79 79 88
61 55 51 36 40 52 52 47 46 57 56 54 53 51 53 53 54 53 60 68 67 68 71 71 70 67 76 74 80 83 76 75 64 64 73 78 59 76 70 76 67 91 92
57 50 45 27 47 73 58 54 48 57 59 57 54 52 54 54 54 56 50 49 61 71 69 72 74 74 77 78 80 83 82 69 80 81 86 56 81 72 81 81 91 85 97
51 39 51 51 66 70 60 55 44 54 62 61 57 53 48 56 50 56 53 46 48 53 58 67 76 78 79 80 72 74 82 87 83 54 85 86 86 80 87 92 94 97 94
50 54 52 56 50 59 55 55 46 56 62 62 58 56 53 55 55 55 51 50 52 51 54 57 62 66 73 81 81 82 85 87 87 89 90 82 78 86 95 96 79 92 85
Wind_Direction
308 293 300 297 291 312 308 284 264 255 254 252 239 254 255 261 263 258 263 258 256 257 263 271 270 271 250 264 264 258 270 247 263 260 260 257 244 244 279 273 281 278 282
305 292 286 290 297 305 314 286 258 253 247 244 241 242 252 253 258 267 266 259 264 257 276 271 269 251 254 243 251 250 242 258 251 237 266 258 273 256 273 274 277 272 276
285 298 300 285 276 289 311 277 253 251 250 247 252 249 248 260 258 267 267 254 255 277 275 265 265 249 247 245 243 244 261 213 262 278 243 274 277 278 272 273 271 276 279
292 297 295 307 303 305 298 279 251 248 248 245 251 254 255 256 261 260 263 263 268 273 262 249 260 264 236 257 263 213 253 272 224 244 249 251 304 268 275 276 276 276 280
287 290 292 302 309 311 288 282 253 246 246 242 248 251 256 258 261 262 261 262 257 253 251 259 254 266 213 251 264 229 235 232 244 240 266 292 267 275 286 292 288 288 290
284 296 295 289 297 312 297 283 256 246 247 245 245 247 255 262 256 241 245 246 235 243 255 261 260 258 253 262 236 232 229 244 254 264 267 268 278 276 282 288 288 292 296
283 292 295 292 270 271 272 255 251 244 248 248 250 250 255 269 240 235 237 223 255 240 264 253 258 253 260 236 225 226 232 213 247 259 265 277 285 288 283 286 290 290 293
285 282 282 271 256 296 284 284 249 244 246 249 248 255 246 247 240 233 228 236 235 249 246 255 227 233 238 238 255 248 238 250 261 268 272 280 284 283 285 286 288 295 300
275 286 273 260 256 284 285 287 240 244 241 249 252 249 248 244 231 228 223 249 242 258 237 214 246 254 253 256 253 252 262 261 262 269 276 278 277 283 286 293 293 297 298
268 266 278 270 285 274 257 282 242 241 236 242 244 253 247 238 230 218 224 235 228 252 250 236 245 237 251 247 244 258 247 270 265 267 278 277 284 287 288 291 293 287 293
267 275 277 276 291 277 282 256 246 240 234 239 241 238 243 230 221 218 242 234 251 235 242 233 256 229 239 233 249 256 267 269 274 276 275 283 289 290 292 293 295 295 297
272 277 280 264 280 279 274 252 245 243 234 235 240 238 233 224 231 215 240 244 244 226 226 251 238 237 260 246 261 265 270 278 279 284 281 280 284 292 289 288 296 297 300
269 269 274 265 270 287 278 249 244 241 237 233 242 237 235 224 228 221 232 234 248 245 238 245 252 248 260 258 269 272 275 281 282 285 282 281 284 287 289 295 294 297 302
269 263 272 263 266 270 271 255 245 242 236 237 243 241 231 234 231 218 230 234 249 236 243 252 257 257 266 265 260 273 268 278 282 279 283 289 292 291 291 289 292 293 299
262 254 267 271 277 274 274 254 246 239 233 234 237 236 231 230 229 223 231 232 247 236 257 241 256 263 263 268 266 271 272 275 275 275 280 279 284 287 295 288 294 300 299
254 262 241 261 276 269 271 251 246 234 232 237 238 235 237 223 225 224 230 241 249 243 247 251 250 262 260 264 264 265 275 275 277 274 277 280 285 287 289 291 298 296 296
254 248 264 266 256 262 258 252 240 229 232 239 242 234 231 232 224 231 228 237 251 241 253 251 256 263 262 270 275 280 277 278 279 279 281 285 285 290 293 293 291 295 295
246 259 259 244 269 266 268 247 238 226 232 236 241 237 231 222 224 225 229 237 250 241 252 252 265 270 269 269 273 276 277 278 281 283 280 291 288 292 293 291 293 296 302
247 257 256 250 263 257 266 245 237 228 230 233 240 235 234 221 225 231 231 233 239 243 255 259 263 266 268 274 273 278 279 282 283 283 284 286 293 292 292 292 296 299 301
248 252 247 252 249 258 261 248 236 226 232 235 238 236 237 222 233 229 235 240 238 244 246 257 270 265 271 273 278 277 279 282 282 287 287 286 285 293 293 297 300 301 302
247 237 251 243 251 258 259 250 236 228 232 234 237 239 237 226 226 237 237 242 237 242 255 257 257 262 276 279 279 279 280 282 286 287 289 290 294 293 292 296 298 300 302
243 239 252 241 245 255 249 252 238 227 231 236 236 242 241 235 230 237 246 248 237 238 247 261 266 267 270 276 275 277 278 285 285 283 284 285 289 291 291 298 299 302 301
243 244 244 229 255 253 246 253 236 223 232 236 238 243 244 241 242 237 244 248 250 246 242 251 258 265 267 271 272 276 279 284 284 284 281 284 293 291 298 299 301 301 303
236 235 231 190 242 254 246 245 238 225 230 237 240 244 243 247 243 243 243 243 243 253 252 250 254 258 261 266 272 275 279 279 279 281 283 290 290 297 298 299 300 303 303
243 250 226 217 231 232 238 244 245 230 229 233 237 243 243 250 243 244 247 243 244 248 252 252 256 256 259 263 267 271 276 278 282 289 286 290 293 298 298 299 298 299 298
234 232 231 228 237 228 234 238 241 228 225 232 234 241 244 245 252 247 251 246 248 245 247 251 254 256 259 263 267 268 270 273 276 279 285 293 298 295 292 294 298 295 302